• In Deutschland
  • Länderverzeichnis
  • Für 7 Tage
  • Wassertemperatur
  • Satellitenkarten
  • Wetterkarte
  • Widgets
  • user-avatar
    Anmelden

    Stündliche Wetter San Juan

    Heute, 18 Januar, Donnerstag

    Zeit Temperatur Niederschläge Wind Luftdruck Luftfeuchtigkeit
    00:00 +27°C° 0 mm 2 m/S 707 mmHg 45%
    01:00 +27°C° 0 mm 1 m/S 707 mmHg 46%
    02:00 +27°C° 0 mm 1 m/S 707 mmHg 47%
    03:00 +26°C° 0 mm 1 m/S 707 mmHg 48%
    04:00 +26°C° 0 mm 1 m/S 707 mmHg 49%
    05:00 +26°C° 0 mm 1 m/S 708 mmHg 47%
    06:00 +27°C° 0 mm 1 m/S 708 mmHg 44%
    07:00 +27°C° 0 mm 1 m/S 708 mmHg 42%
    08:00 +28°C° 0,1 mm 1 m/S 708 mmHg 38%
    09:00 +29°C° 0,1 mm 2 m/S 708 mmHg 35%
    10:00 +30°C° 0,1 mm 2 m/S 708 mmHg 32%
    11:00 +31°C° 0,1 mm 2 m/S 708 mmHg 29%
    12:00 +33°C° 0,1 mm 3 m/S 707 mmHg 27%
    13:00 +34°C° 0,1 mm 3 m/S 707 mmHg 25%
    14:00 +34°C° 0,1 mm 3 m/S 707 mmHg 24%
    15:00 +34°C° 0,1 mm 3 m/S 706 mmHg 24%
    16:00 +34°C° 0,1 mm 3 m/S 706 mmHg 23%
    17:00 +34°C° 0,1 mm 3 m/S 706 mmHg 24%
    18:00 +33°C° 0,1 mm 3 m/S 706 mmHg 25%
    19:00 +31°C° 0,1 mm 2 m/S 707 mmHg 26%
    20:00 +31°C° 0,2 mm 2 m/S 707 mmHg 27%
    21:00 +30°C° 0,2 mm 2 m/S 708 mmHg 29%
    22:00 +30°C° 0,2 mm 2 m/S 708 mmHg 30%
    23:00 +29°C° 0,2 mm 2 m/S 708 mmHg 32%

    Morgen, 19 Januar, Freitag

    Zeit Temperatur Niederschläge Wind Luftdruck Luftfeuchtigkeit
    00:00 +29°C° 0,2 mm 2 m/S 708 mmHg 34%
    01:00 +28°C° 0,2 mm 2 m/S 708 mmHg 35%
    02:00 +28°C° 0,1 mm 2 m/S 708 mmHg 36%
    03:00 +28°C° 0,1 mm 2 m/S 708 mmHg 38%
    04:00 +27°C° 0,1 mm 2 m/S 708 mmHg 39%
    05:00 +28°C° 0 mm 2 m/S 708 mmHg 36%
    06:00 +28°C° 0 mm 2 m/S 708 mmHg 34%
    07:00 +29°C° 0 mm 2 m/S 708 mmHg 31%
    08:00 +30°C° 0 mm 2 m/S 708 mmHg 29%
    09:00 +31°C° 0 mm 2 m/S 708 mmHg 26%
    10:00 +33°C° 0 mm 3 m/S 708 mmHg 23%
    11:00 +34°C° 0 mm 3 m/S 707 mmHg 22%
    12:00 +35°C° 0 mm 3 m/S 707 mmHg 21%
    13:00 +36°C° 0 mm 4 m/S 706 mmHg 19%
    14:00 +36°C° 0 mm 4 m/S 706 mmHg 19%
    15:00 +36°C° 0 mm 4 m/S 705 mmHg 18%
    16:00 +36°C° 0 mm 4 m/S 704 mmHg 18%
    17:00 +36°C° 0 mm 4 m/S 705 mmHg 19%
    18:00 +35°C° 0 mm 3 m/S 705 mmHg 20%
    19:00 +34°C° 0 mm 3 m/S 705 mmHg 21%
    20:00 +34°C° 0,1 mm 3 m/S 706 mmHg 23%
    21:00 +33°C° 0,1 mm 3 m/S 706 mmHg 24%
    22:00 +33°C° 0,1 mm 4 m/S 706 mmHg 25%
    23:00 +31°C° 0,2 mm 3 m/S 706 mmHg 27%

    übermorgen, 20 Januar, Samstag

    Zeit Temperatur Niederschläge Wind Luftdruck Luftfeuchtigkeit
    00:00 +30°C° 0,2 mm 3 m/S 705 mmHg 28%
    01:00 +30°C° 0,2 mm 2 m/S 705 mmHg 30%
    02:00 +29°C° 0,2 mm 2 m/S 705 mmHg 31%
    03:00 +29°C° 0,2 mm 2 m/S 705 mmHg 32%
    04:00 +29°C° 0,2 mm 2 m/S 704 mmHg 33%
    05:00 +29°C° 0,4 mm 2 m/S 705 mmHg 33%
    06:00 +29°C° 0,4 mm 2 m/S 705 mmHg 32%
    07:00 +29°C° 0,4 mm 2 m/S 705 mmHg 32%
    08:00 +30°C° 0,4 mm 2 m/S 705 mmHg 30%
    09:00 +31°C° 0,4 mm 3 m/S 705 mmHg 29%
    10:00 +33°C° 0,4 mm 3 m/S 705 mmHg 27%
    11:00 +34°C° 0,2 mm 3 m/S 704 mmHg 26%
    12:00 +34°C° 0,2 mm 3 m/S 704 mmHg 25%
    13:00 +35°C° 0,2 mm 3 m/S 703 mmHg 24%
    14:00 +35°C° 0,1 mm 3 m/S 703 mmHg 24%
    15:00 +35°C° 0,1 mm 3 m/S 702 mmHg 24%
    16:00 +36°C° 0,1 mm 3 m/S 701 mmHg 23%
    17:00 +34°C° 0,6 mm 3 m/S 702 mmHg 26%
    18:00 +33°C° 0,6 mm 3 m/S 702 mmHg 29%
    19:00 +31°C° 0,6 mm 3 m/S 702 mmHg 32%
    20:00 +30°C° 0,7 mm 3 m/S 703 mmHg 38%
    21:00 +29°C° 0,7 mm 3 m/S 703 mmHg 43%
    22:00 +28°C° 0,7 mm 3 m/S 704 mmHg 49%
    23:00 +28°C° 0,7 mm 3 m/S 703 mmHg 50%

    21 Januar, Sonntag

    Zeit Temperatur Niederschläge Wind Luftdruck Luftfeuchtigkeit
    00:00 +28°C° 0,7 mm 3 m/S 703 mmHg 51%
    01:00 +27°C° 0,7 mm 2 m/S 703 mmHg 51%
    02:00 +27°C° 0,4 mm 2 m/S 702 mmHg 52%
    03:00 +27°C° 0,4 mm 2 m/S 702 mmHg 53%
    04:00 +26°C° 0,4 mm 1 m/S 702 mmHg 53%
    05:00 +27°C° 0 mm 1 m/S 702 mmHg 50%
    06:00 +27°C° 0 mm 1 m/S 703 mmHg 47%
    07:00 +28°C° 0 mm 1 m/S 703 mmHg 45%
    08:00 +29°C° 0,2 mm 1 m/S 703 mmHg 41%
    09:00 +30°C° 0,2 mm 2 m/S 703 mmHg 36%
    10:00 +31°C° 0,2 mm 2 m/S 703 mmHg 32%
    11:00 +33°C° 0,1 mm 3 m/S 702 mmHg 30%
    12:00 +34°C° 0,1 mm 3 m/S 702 mmHg 27%
    13:00 +35°C° 0,1 mm 3 m/S 701 mmHg 24%
    14:00 +35°C° 0 mm 3 m/S 701 mmHg 24%
    15:00 +35°C° 0 mm 3 m/S 701 mmHg 24%
    16:00 +35°C° 0 mm 3 m/S 700 mmHg 24%
    17:00 +35°C° 0,3 mm 3 m/S 700 mmHg 25%
    18:00 +34°C° 0,3 mm 3 m/S 701 mmHg 27%
    19:00 +32°C° 0,3 mm 2 m/S 701 mmHg 29%
    20:00 +31°C° 0,3 mm 2 m/S 701 mmHg 31%
    21:00 +31°C° 0,3 mm 2 m/S 702 mmHg 33%
    22:00 +30°C° 0,3 mm 2 m/S 702 mmHg 35%
    23:00 +29°C° 0,2 mm 2 m/S 702 mmHg 37%

    22 Januar, Montag

    Zeit Temperatur Niederschläge Wind Luftdruck Luftfeuchtigkeit
    00:00 +29°C° 0,2 mm 2 m/S 702 mmHg 39%
    01:00 +28°C° 0,2 mm 1 m/S 701 mmHg 41%
    02:00 +28°C° 0,1 mm 1 m/S 701 mmHg 42%
    03:00 +27°C° 0,1 mm 1 m/S 701 mmHg 43%
    04:00 +27°C° 0,1 mm 1 m/S 701 mmHg 44%
    05:00 +27°C° 0,2 mm 1 m/S 701 mmHg 42%
    06:00 +28°C° 0,2 mm 1 m/S 702 mmHg 40%
    07:00 +28°C° 0,2 mm 1 m/S 702 mmHg 39%
    08:00 +29°C° 0,1 mm 1 m/S 702 mmHg 35%
    09:00 +30°C° 0,1 mm 1 m/S 702 mmHg 31%
    10:00 +31°C° 0,1 mm 1 m/S 701 mmHg 28%
    11:00 +32°C° 0 mm 2 m/S 701 mmHg 25%
    12:00 +35°C° 0 mm 2 m/S 700 mmHg 22%
    13:00 +36°C° 0 mm 2 m/S 700 mmHg 19%
    14:00 +36°C° 0 mm 3 m/S 699 mmHg 18%
    15:00 +36°C° 0 mm 3 m/S 699 mmHg 17%
    16:00 +37°C° 0 mm 3 m/S 699 mmHg 17%
    17:00 +36°C° 0,1 mm 3 m/S 699 mmHg 19%
    18:00 +35°C° 0,1 mm 2 m/S 699 mmHg 20%
    19:00 +34°C° 0,1 mm 2 m/S 700 mmHg 22%
    20:00 +34°C° 0,1 mm 2 m/S 700 mmHg 24%
    21:00 +32°C° 0,1 mm 2 m/S 701 mmHg 25%
    22:00 +31°C° 0,1 mm 2 m/S 701 mmHg 27%
    23:00 +31°C° 0,1 mm 2 m/S 701 mmHg 28%

    23 Januar, Dienstag

    Zeit Temperatur Niederschläge Wind Luftdruck Luftfeuchtigkeit
    00:00 +30°C° 0,1 mm 1 m/S 701 mmHg 29%
    01:00 +30°C° 0,1 mm 1 m/S 700 mmHg 30%
    02:00 +29°C° 0 mm 1 m/S 700 mmHg 31%
    03:00 +29°C° 0 mm 1 m/S 700 mmHg 32%
    04:00 +28°C° 0 mm 1 m/S 700 mmHg 33%
    05:00 +29°C° 0 mm 1 m/S 701 mmHg 32%
    06:00 +30°C° 0 mm 1 m/S 701 mmHg 31%
    07:00 +30°C° 0 mm 1 m/S 701 mmHg 29%
    08:00 +32°C° 0 mm 2 m/S 701 mmHg 26%
    09:00 +34°C° 0 mm 2 m/S 701 mmHg 24%
    10:00 +35°C° 0 mm 2 m/S 701 mmHg 21%
    11:00 +36°C° 0 mm 3 m/S 701 mmHg 19%
    12:00 +37°C° 0 mm 3 m/S 700 mmHg 16%
    13:00 +38°C° 0 mm 3 m/S 700 mmHg 14%
    14:00 +38°C° 0 mm 3 m/S 699 mmHg 14%
    15:00 +38°C° 0 mm 3 m/S 699 mmHg 13%
    16:00 +39°C° 0 mm 3 m/S 699 mmHg 12%
    17:00 +38°C° 0 mm 3 m/S 699 mmHg 14%
    18:00 +37°C° 0 mm 3 m/S 700 mmHg 16%
    19:00 +36°C° 0 mm 3 m/S 700 mmHg 18%
    20:00 +35°C° 0,1 mm 3 m/S 701 mmHg 21%
    21:00 +34°C° 0,1 mm 2 m/S 701 mmHg 24%
    22:00 +32°C° 0,1 mm 2 m/S 701 mmHg 26%
    23:00 +31°C° 0,3 mm 3 m/S 702 mmHg 32%
    Mehr zeigen